Location: Carrières
(48.9495°N, 2.0407°E)
Time: 22:39:41
(UTC+00:00)

Cosmos 2228 - Pass Details

Date: 28 January 2023
Orbit: 585 x 612 km, 82.5° (Epoch: 29 March)

Event Time Altitude Azimuth Distance (km) Brightness Sun altitude
Rises 18:58:10 0° 345° (NNW) 2,834 6.6 -22.2°
Reaches altitude 10° 19:00:26 10° 340° (NNW) 1,925 5.8 -22.6°
Maximum altitude 19:04:30 47° 266° (W) 783 3.9 -23.3°
Drops below altitude 10° 19:08:32 10° 193° (SSW) 1,904 5.7 -23.9°
Sets 19:10:46 0° 187° (S) 2,799 6.5 -24.3°
